Regional Weather Roundup
Issued by NWS Cleveland, OH

Home | Current Version | Previous Version | Graphics & Text | Print | Product List | Glossary On
Versions: 1 2 3 4 5 6 7 8 9 10 11 12 13 14 15 16 17 18 19 20 21 22 23 24 25 26 27 28 29 30 31 32 33 34 35 36 37 38 39 40 41 42 43 44 45 46 47 48 49 50
000
ASUS41 KCLE 182012
RWRCLE
OHIO REGIONAL WEATHER ROUNDUP
NATIONAL WEATHER SERVICE WILMINGTON, OH
400 PM EDT FRI AUG 18 2017

NOTE: "FAIR" INDICATES FEW OR NO CLOUDS BELOW 12,000 FEET WITH NO
SIGNIFICANT WEATHER AND/OR OBSTRUCTIONS TO VISIBILITY.

OHZ001>008-015>018-024>027-034-035-043-044-182100-
   NORTHWEST OHIO

CITY           SKY/WX    TMP DP  RH WIND       PRES   REMARKS
DEFIANCE       PTSUNNY   78  63  59 NW12      29.85F
FINDLAY        FAIR      83  63  50 W16G24    29.84F
TOLEDO EXPRESS CLOUDY    80  63  55 SW16      29.83S
TOLEDO EXEC    PTSUNNY   80  62  54 W17       29.84R
LIMA           FAIR      80  64  58 W12G24    29.87F
$$

OHZ009>014-019>023-028>033-038-089-182100-
   NORTHEAST OHIO

CITY           SKY/WX    TMP DP  RH WIND       PRES   REMARKS
CLE-HOPKINS    PTSUNNY   83  64  52 W16       29.83S
CLE-LAKEFRONT  PTSUNNY   80  67  64 W17       29.80S
CUY CO. ARPT   NOT AVBL
LORAIN-ELYRIA  PTSUNNY   79  61  53 W13G20    29.83S
ASHTABULA      PTSUNNY   78  66  66 W12G24    29.82R
AKRON-CANTON   FAIR      85  61  44 W18       29.84S
WOOSTER        PTSUNNY   79  64  60 W9G18     29.86S
MANSFIELD      PTSUNNY   80  64  58 W13G22    29.87S
YOUNGSTOWN     PTSUNNY   82  61  48 W15G25    29.82S
$$

OHZ042-051>053-060>062-070>072-077>081-182100-
  SOUTHWEST OHIO

CITY           SKY/WX    TMP DP  RH WIND       PRES   REMARKS
CINC-COVINGTON PTSUNNY   83  65  54 NW15      29.92S
CINC-LUNKEN    FAIR      85  65  51 W14       29.90F
HAMILTON       FAIR      84  63  49 W10G21    29.91F
DAYTON         FAIR      83  63  50 W15       29.90F
WRIGHT-PAT AFB PTSUNNY   82  63  51 W13       29.89F
DAYTON GENERAL FAIR      82  60  47 W12G20    29.90F
WILMINGTON     FAIR      83  65  54 W12       29.90S
$$

OHZ036-037-039>041-045>050-054>059-063>069-073>076-082>088-182100-
  CENTRAL AND SOUTHEAST OHIO

CITY           SKY/WX    TMP DP  RH WIND       PRES   REMARKS
COLUMBUS       FAIR      83  65  54 W16       29.87S
OSU AIRPORT    FAIR      82  66  58 W16       29.87F
BOLTON FIELD   PTSUNNY   81  66  61 W8        29.89S
RICKENBACK AFB FAIR      83  65  54 W14G23    29.87F
NEWARK         FAIR      83  63  50 W13       29.86F
MARION         FAIR      82  61  48 W17G24    29.87S
LANCASTER      FAIR      82  65  56 W12G22    29.88S
ZANESVILLE     PTSUNNY   84  63  49 W12G22    29.86F
NEW PHILLY     FAIR      84  64  50 W8        29.85F
$$




USA.gov is the U.S. government's official web portal to all federal, state and local government web resources and services.